Regional Weather Roundup
Issued by NWS

Home | Current Version | Previous Version | Text Only | Print | Product List | Glossary On
Versions: 1 2 3 4 5 6 7 8 9 10 11 12 13 14 15 16 17 18 19 20 21 22 23 24 25 26 27 28 29 30 31 32 33 34 35 36 37 38 39 40 41 42 43 44 45 46 47 48 49 50
000
ASUS43 KMPX 221010
RWRMN
WEATHER ROUNDUP FOR MINNESOTA
NATIONAL WEATHER SERVICE TWIN CITIES/CHANHASSEN MN
400 AM CST MON DEC 22 2014


NOTE: "FAIR" INDICATES FEW OR NO CLOUDS BELOW 12,000 FEET WITH NO
SIGNIFICANT WEATHER AND/OR OBSTRUCTIONS TO VISIBILITY. N/A MEANS
CURRENT SKY AND/OR WEATHER CONDITIONS ARE NOT AVAILABLE.

MNZ060>063-068>070-221100-
   Twin Cities Metro

CITY           SKY/WX    TMP DP  RH WIND       PRES   REMARKS
TWIN CITIES    CLOUDY    37  35  92 S16       29.68F
ST PAUL        CLOUDY    37  35  92 SE15      29.70F
CRYSTAL        LGT RAIN  39  36  89 SE15G21   29.66F
BLAINE         CLOUDY    39  39 100 SE9       29.67F FOG
LAKEVILLE      CLOUDY    36  36 100 SE9       29.68S FOG
EDEN PRAIRIE   CLOUDY    38  36  92 SE14      29.65F FOG
SOUTH ST PAUL  CLOUDY    37  36  94 SE8       29.70S FOG
LAKE ELMO      CLOUDY    37  36  93 SE14G20   29.70F
$$
MNZ001>005-007-008-013>017-022>024-027-028-221100-
   Northwest Minnesota

CITY           SKY/WX    TMP DP  RH WIND       PRES   REMARKS
BEMIDJI        CLOUDY    33  33  99 SE9       29.58S FOG     WCI  25
HALLOCK        CLOUDY    34  34 100 E9        29.55F FOG     WCI  26
ROSEAU         CLOUDY    34  30  86 E7        29.60S FOG     WCI  28
WARROAD        CLOUDY    34  28  80 E6        29.61F FOG     WCI  29
THIEF RVR FALL CLOUDY    34  34 100 E13       29.55F WCI  25
CROOKSTON      MIX PCPN  36  34  93 E8        29.55S
FOSSTON        CLOUDY    34  32  93 E8        29.55F FOG     WCI  27
DETROIT LAKES  CLOUDY    36  34  93 SE10      29.53F FOG
MOORHEAD       CLOUDY    37  37 100 SE13      29.51F FOG
PARK RAPIDS    CLOUDY    35  34  96 SE12      29.56F FOG     WCI  27
MAHNOMEN       CLOUDY    35  34  96 SE9       29.53F WCI  28
$$
MNZ006-009>011-018-025>026-221100-
   North Central Minnesota

CITY           SKY/WX    TMP DP  RH WIND       PRES   REMARKS
BAUDETTE       CLOUDY    33  32  96 E7        29.61F FOG     WCI  27
FLAG ISLAND    CLOUDY    34  30  86 SE6       29.62S FOG     WCI  29
INTL FALLS     CLOUDY    33  32  96 SE8       29.65S FOG     WCI  26
WASKISH        CLOUDY    34  34 100 CALM      29.61S
BIG FORK       FLURRIES  34  34 100 SE5       29.64S WCI  30
LONGVILLE      CLOUDY    34  34 100 SE6       29.61S FOG     WCI  29
GRAND RAPIDS   CLOUDY    34  32  93 SE8       29.64S WCI  27
CRANE LAKE     CLOUDY    32  32 100 CALM      29.70S FOG
ORR            LGT SNOW  34  30  86 SE7       29.64S WCI  28
COOK           LGT SNOW  32  32 100 CALM      29.67S
WALKER         DRIZZLE   33  33  99 SE5       29.58F WCI  29
$$
MNZ012-019>021-037-221100-
   Northeast Minnesota

CITY           SKY/WX    TMP DP  RH WIND       PRES   REMARKS
DULUTH         LGT SNOW  33  32  96 SE9       29.69S FOG     WCI  25
ELY            CLOUDY    34  32  93 SE8       29.69S FOG     WCI  27
HIBBING        CLOUDY    34  31  88 SE8       29.67S FOG     WCI  27
EVELETH        LGT SNOW  32  32 100 SE5       29.69F WCI  27
DULUTH HARBOR  MIX PCPN  34  32  93 CALM      29.74S
SILVER BAY     LGT RAIN  36  34  93 SE3       29.72S
GRAND MARAIS     N/A     38  35  89 S9        29.78S
G MARAIS ARPRT MIX PCPN  30  28  93 S7        29.74S VSB 3/4 WCI  23
$$
MNZ029>031-032-039>041-046>048-054>057-064-221100-
   West Central Minnesota

CITY           SKY/WX    TMP DP  RH WIND       PRES   REMARKS
FERGUS FALLS   CLOUDY    36  36 100 SE16      29.54F FOG
WHEATON        CLOUDY    34  34 100 SE13      29.52S FOG     WCI  25
MORRIS         FOG       36  36 100 SE16      29.51F VSB 3/4
ALEXANDRIA     CLOUDY    36  35  96 SE14      29.55F FOG
ELBOW LAKE     CLOUDY    35  35 100 SE16      29.52S FOG     WCI  25
WADENA         DRIZZLE   34  34 100 SE10      29.56S WCI  26
GLENWOOD       DRIZZLE   36  36 100 SE14      29.56F
APPLETON       CLOUDY    37  36  93 SE12      29.52F FOG
BENSON         CLOUDY    37  36  93 S14G20    29.54F FOG
ORTONVILLE     CLOUDY    36  34  93 SE12      29.50S FOG
MADISON        DRIZZLE   39  37  93 SE10      29.51S
WILLMAR        FOG       37  36  93 SE15      29.58S VSB 1
$$
MNZ033>034-036-042>043-049>051-058-059-221100-
   Central Minnesota

CITY           SKY/WX    TMP DP  RH WIND       PRES   REMARKS
ST CLOUD       CLOUDY    39  36  89 SE16      29.61F FOG
SAUK CENTRE    CLOUDY    35  35 100 SE12G17   29.57F FOG     WCI  27
PAYNESVILLE    CLOUDY    34  34 100 E14       29.59F FOG     WCI  25
AITKIN         CLOUDY    37  34  87 SE6       29.62F FOG
PINE RIVER     CLOUDY    36  36 100 SE8       29.64S FOG
BRAINERD       CLOUDY    36  35  96 SE10      29.61F FOG
STAPLES        CLOUDY    36  36 100 SE7       29.58S FOG
LONG PRAIRIE   CLOUDY    34  34 100 SE10      29.57F FOG     WCI  26
LITTLE FALLS   MIX PCPN  36  34  93 SE9       29.61F
LITCHFIELD     CLOUDY    39  39 100 SE9       29.61S FOG
BUFFALO        CLOUDY    38  36  94 SE10G16   29.65F FOG
MAPLE LAKE     CLOUDY    38  38  98 SE10      29.64F FOG
$$
MNZ037-044-045-052-053-221100-
   East Central Minnesota

CITY           SKY/WX    TMP DP  RH WIND       PRES   REMARKS
PRINCETON      LGT RAIN  37  37 100 SE9       29.65F
MORA           CLOUDY    34  34 100 SE7       29.68F WCI  28
CAMBRIDGE      CLOUDY    39  32  75 SE9       29.65F
RUSH CITY      CLOUDY    36  35  96 SE8       29.69S
MOOSE LAKE     CLOUDY    34  34 100 SE6       29.67S FOG     WCI  29
HINCKLEY       LGT RAIN  36  36 100 CALM      29.68S
CLOQUET        LGT SNOW  34  32  93 SE3       29.68F
MCGREGOR       CLOUDY    34  34 100 SE7       29.65F WCI  28
$$
MNZ071>073-080-081-089-090-097-098-221100-
   Southwest Minnesota

CITY           SKY/WX    TMP DP  RH WIND       PRES   REMARKS
MONTEVIDEO     CLOUDY    37  37 100 S10       29.54F FOG
GRANITE FALLS  CLOUDY    37  37  98 SE14      29.55F FOG
CANBY          CLOUDY    38  37  93 SE9       29.51S
MARSHALL       CLOUDY    39  36  87 S14       29.53F
REDWOOD FALLS  CLOUDY    39  38  96 S15       29.57S FOG
OLIVIA         CLOUDY    37  37 100 SE14      29.57S FOG
PIPESTONE      LGT RAIN  37  37 100 S9        29.50F
WINDOM         CLOUDY    39  39 100 SE14G20   29.57F FOG
WORTHINGTON    CLOUDY    39 -11  11 S14       29.55S
JACKSON        DRIZZLE   39  37  93 S13G18    29.58F
TRACY          LGT RAIN  39  38  97 S15       29.53F
SLAYTON        LGT RAIN  37  37 100 SE14      29.53F
$$
MNZ065>067-074>077-082>085-091>093-221100-
   South Central Minnesota

CITY           SKY/WX    TMP DP  RH WIND       PRES   REMARKS
MANKATO        CLOUDY    37  36  93 S15       29.64S
NEW ULM        CLOUDY    39  39 100 S16       29.60F FOG
ST JAMES       CLOUDY    39  37  93 SE15G21   29.61F FOG
FAIRMONT       CLOUDY    39  36  87 SE17      29.60F
GLENCOE        CLOUDY    39  38  98 SE12      29.62F FOG
FARIBAULT      CLOUDY    37  37 100 SE15      29.67F FOG
OWATONNA       CLOUDY    37  36  93 SE20      29.67F FOG
WASECA         CLOUDY    36  36 100 SE15      29.67S FOG
ALBERT LEA     FOG       37  37 100 SE16      29.66F VSB 1
$$
MNZ078>079-086>088-094>096-221100-
   Southeast Minnesota

CITY           SKY/WX    TMP DP  RH WIND       PRES   REMARKS
ROCHESTER      LGT RAIN  35  34  96 S17       29.71F FOG     WCI  25
RED WING       LGT RAIN  37  36  93 S12       29.71F
STANTON        CLOUDY    38  35  89 S14G21    29.68S FOG
DODGE CENTER   CLOUDY    36  36 100 S17       29.69F FOG
WINONA         CLOUDY    36  34  93 S8        29.78S FOG
AUSTIN         CLOUDY    36  36 100 SE8       29.69F FOG
PRESTON        CLOUDY    34  33  96 S13G21    29.74S FOG     WCI  25
$$
ABBREVIATIONS USED IN REMARKS
   TC - TEMPERATURES IN CELSIUS
  WCI - WIND CHILL INDEX
   HX - HEAT INDEX
  VSB - VISIBILITY
$$



USA.gov is the U.S. government's official web portal to all federal, state and local government web resources and services.